Retour au catalogue

STARLINK-3717

ActifCommunicationsVLEO
NORAD 52096·PAYLOAD·🇺🇸 United States

Lancé Mar 19, 2022 depuis Cape Canaveral Space Force Station

Loading…

Prochains Passages (prochaines 24 heures)

TLE

FraisSource: CelesTrak SupGP

Époque: Sep 14, 2026, 22:04 UTC

1 52096C 22029J   26257.91993056 -.00011312  00000+0 -32388-3 0  2574
2 52096  53.1571 296.0985 0001225  95.1916 201.7500 15.35381730    18

Suivez STARLINK-3717 en temps réel avec AllMySat

Download on the App Store